Regional Weather Roundup
Issued by NWS Columbia, SC

Home | Current Version | Previous Version | Text Only | Print | Product List | Glossary On
Versions: 1 2 3 4 5 6 7 8 9 10 11 12 13 14 15 16 17 18 19 20 21 22 23 24 25 26 27 28 29 30 31 32 33 34 35 36 37 38 39 40 41 42 43 44 45 46 47 48 49 50
000
ASUS42 KCAE 181710
RWRCAE
REGIONAL WEATHER ROUNDUP
NATIONAL WEATHER SERVICE COLUMBIA SC
100 PM EDT THU SEP 18 2014

NOTE: "FAIR" INDICATES FEW OR NO CLOUDS BELOW 12,000 FEET WITH NO
SIGNIFICANT WEATHER AND/OR OBSTRUCTIONS TO VISIBILITY.

NOT ALL STATIONS ARE QUALITY CONTROLLED BY THE NATIONAL
WEATHER SERVICE. USE DATA WITH CAUTION...ESPECIALLY
DEWPOINT OBSERVATIONS.

SCZ001>056-GAZ040-063>065-077-181800-
...UPSTATE SOUTH CAROLINA...

CITY           SKY/WX    TMP DP  RH WIND       PRES   REMARKS
ANDERSON       MOSUNNY   77  63  61 CALM      30.01S
LIBERTY        PTSUNNY   77  64  63 E5        30.01F
SPARTANBURG    PTSUNNY   75  66  73 NW3       30.02S
GREENVILLE     CLOUDY    75  64  68 E5        30.03S
GREENWOOD      PTSUNNY   78  65  63 NE6       30.01F
GREER          CLOUDY    73  66  78 VRB5      30.02S
ROCK HILL      MOSUNNY   77  66  68 VRB3      30.02S
CHESTER        PTSUNNY   77  63  61 NE5       30.06S


...CENTRAL SOUTH CAROLINA...

CITY           SKY/WX    TMP DP  RH WIND       PRES   REMARKS
COLUMBIA APT   MOSUNNY   77  66  68 CALM      29.99S
COLUMBIA OWENS PTSUNNY   77  67  71 S3        29.99F
DARLINGTON     PTSUNNY   81  68  65 N5        29.99F
FLORENCE       PTSUNNY   80  67  64 VRB3      29.97F
ORANGEBURG     MOSUNNY   81  67  62 E7        29.98S
NEWBERRY       CLOUDY    72  70  94 NE3       30.05R
AIKEN          FAIR      79  70  73 CALM      30.02F
BARNWELL       FAIR      81  68  65 E5        29.98F
MANNING        PTSUNNY   79  72  78 N6        29.98F
CAMDEN         PTSUNNY   73  66  78 NE3       30.01S
LANCASTER      PTSUNNY   77  68  73 E8        30.00F
WINNSBORO      FAIR      77  66  69 NE5       30.00S


...EASTERN AND COASTAL SOUTH CAROLINA...

CITY           SKY/WX    TMP DP  RH WIND       PRES   REMARKS
MYRTLE BEACH   PTSUNNY   81  70  69 E12       29.96F
N MYRTLE BCH   HVY RAIN  74  69  85 N8        29.97S
CONWAY         FAIR      81  70  69 NE7       29.96F
HARTSVILLE     PTSUNNY   81  50  34 E8        29.99F
FLORENCE       PTSUNNY   80  67  64 VRB3      29.97F
DARLINGTON     PTSUNNY   81  68  65 N5        29.99F
CHARLESTON APT PTSUNNY   86  68  54 N6        29.95F
MOUNT PLEASANT FAIR      81  72  74 CALM      29.95S
WALTERBORO     MOSUNNY   84  64  51 N6        29.97S
BEAUFORT       PTSUNNY   83  71  67 W6        29.95F


...EASTERN GEORGIA...

CITY           SKY/WX    TMP DP  RH WIND       PRES   REMARKS
AUGUSTA BUSH F CLOUDY    78  68  71 VRB5      29.97F
AUGUSTA DANIEL CLOUDY    79  68  69 NE3       29.99F
THOMSON        CLOUDY    79  73  83 CALM      30.03F
WASHINGTON     FAIR      81  73  78 N5        30.01S
CLAXTON        CLOUDY    86  73  66 CALM      29.96S
SYLVANIA       CLOUDY    81  74  78 NE5       29.98F
STATESBORO     PTSUNNY   79  74  84 N3        29.97S
SAVANNAH       PTSUNNY   87  71  58 VRB5      29.95F


...SOUTHERN NORTH CAROLINA...

CITY           SKY/WX    TMP DP  RH WIND       PRES   REMARKS
CHARLOTTE      CLOUDY    74  63  68 CALM      30.02S
MONROE         MOSUNNY   77  65  66 NE6       30.00F
WADESBORO      MOSUNNY   78  63  60 CALM      30.00S
ROCKINGHAM     PTSUNNY   76  66  71 CALM      29.99F
RUTHERFORDTON  CLOUDY    71  64  78 CALM      30.04F
ASHEVILLE      MOSUNNY   72  56  57 CALM      30.06F

$$



USA.gov is the U.S. government's official web portal to all federal, state and local government web resources and services.